WESTFORD NEEDLES, 629

Orbit data source: Space-Track

WESTFORD NEEDLES, 629 is space debris in LEO originally from a launch on Thu, 09 May 1963 UTC via an ATLAS AGENA B launch vehicle from the Air Force Western Test Range (AFWTR). Debris objects in space refer to the collection of defunct objects orbiting the Earth. Examples of debris include non-operational satellites, rocket bodies, and fragments generated from explosions, collisions, or faulty payload assembly.

Loading next visibility...
Identifier
629, 1963-014G
Orbit
LEO
Country
Flag of USUS
Related business
Manufacturer
MIT-LL
Mission
Spacecraft
Bus & Motor
Unknown
Mass
8 kg wet, 8 kg dry
Launch date (UTC)
1963-05-09 (63 years ago)
Launch vehicle
ATLAS AGENA B
Launch site
Air Force Western Test Range (AFWTR)
Object type
Payload
Rocket body
Debris
Shape & HBR
Unknown shape, 1.1 m
Radar Cross Section
Large (>1 m²)

Expand to show TLE details & history
Last TLE update: 13 hours ago

TLE from 13 hours ago
0 WESTFORD NEEDLES
1 00629U 63014G   26126.20897049 -.00000005  00000-0 -37060-2 0  9992
2 00629  87.3579 195.3792 0033866  37.3597 322.9604  8.65562467990568
Epoch: 2026-05-06T05:00Z
TLE epoch observation values (Epoch: 2026-05-06T05:00:55.050Z)
Latitude
-0.00003°
Longitude
-103.92293°
Altitude
3,617.045 km
Speed
6.324 km/s
True Right ascension
13h 01m 31s
True Declination
0° 00' 00"
Sunlit
Object was in full shadow at epoch
Visualization orbit readout
Latitude
Unknown
Longitude
Unknown
Altitude
Unknown
Speed
Unknown
Apparent Right ascension
Unknown
Apparent Declination
Unknown
Sunlit
N/A
Visualization observer readout
Local Sidereal Time
02:19:01
Azimuth
Unknown
Elevation
Unknown
Doppler factor
Unknown
Orbital elements
Apogee altitude
3,673.655 km
Perigee altitude
3,605.802 km
Semi-major axis
10,017.865 km
Eccentricity
0.00339
Inclination
87.3579°
RAAN
195.3792°
Arg. of periapsis
37.3597°
True anomaly
322.72584°
Mean anomaly
322.9604°
Eccentric anomaly
322.8432°
Mean motion
2.16461 °/min
Orbital period
166.31 mins
BSTAR
-0.003706
Loading maneuver chart data...
Computing Atmospheric mass density...

Documentation

Showing up to 5 results
|